Hourly Data Report for August 27, 2020

LYTTON RCS
BRITISH COLUMBIA
Current Station Operator: ECCC - MSC

50°13'28.000" N
121°34'55.000" W
225.00 m
1114746
71765
VLY

Download Data

Hourly Data (August 2020)
Hourly Data Report for August 27, 2020
TIME Temp Definition
°C
Dew Point Definition
°C
Rel Hum Definition
%
Wind Dir Definition
10's deg

Wind Spd Definition
km/h
Visibility Definition
km
Stn Press Definition
kPa
Hmdx Definition


Wind Chill Definition


Weather Definition


00:00 19.1 8.7 51 18 29   98.60     LegendNANA
01:00 18.4 8.9 54 17 24   98.66     LegendNANA
02:00 17.5 9.1 58 18 14   98.73     LegendNANA
03:00 16.3 9.1 62 17 5   98.79     LegendNANA
04:00 14.3 9.3 72 18 4   98.86     LegendNANA
05:00 13.3 9.3 77 19 1   98.92     LegendNANA
06:00 13.1 9.5 79 20 4   99.01     LegendNANA
07:00 13.4 9.3 77 19 5   99.02     LegendNANA
08:00 15.3 8.9 66 18 6   99.01     LegendNANA
09:00 18.9 8.7 51 17 10   98.97     LegendNANA
10:00 22.0 8.0 41 17 6   98.91     LegendNANA
11:00 23.8 5.7 31 23 2   98.83     LegendNANA
12:00 28.0 6.5 26 19 6   98.74 28   LegendNANA
13:00 29.5 4.6 20 17 13   98.65 29   LegendNANA
14:00 29.8 3.3 18 17 15   98.58 29   LegendNANA
15:00 30.2 4.1 19 18 19   98.51 29   LegendNANA
16:00 28.4 4.4 22 18 17   98.49 27   LegendNANA
17:00 26.9 6.2 27 19 16   98.49 27   LegendNANA
18:00 25.4 6.7 30 19 13   98.49 25   LegendNANA
19:00 24.3 7.0 33 19 17   98.54     LegendNANA
20:00 24.3 6.9 33 20 21   98.61     LegendNANA
21:00 23.1 8.3 39 20 25   98.68     LegendNANA
22:00 21.7 9.2 45 18 29   98.69     LegendNANA
23:00 20.7 9.7 49 18 31   98.73     LegendNANA

Notes on Data Quality.

Legend

  • E = Estimated
  • M = Missing
  • NA = Not Available*
  • [empty] = Indicates an unobserved value
Date modified: